Weather History for Oxford, MS

Change the Weather History Date:

Sunday, November 3, 2013

  Actual Average Record
Temperature  
Mean Temperature 46 °F -  
Max Temperature 59 °F 68 °F 83 °F (1971)
Min Temperature 32 °F 44 °F 17 °F (1966)
Degree Days  
Heating Degree Days 20    
Moisture  
Dew Point 36 °F    
Average Humidity 78    
Maximum Humidity 100    
Minimum Humidity 39    
Precipitation  
Precipitation 0.00 in - - ()
Sea Level Pressure  
Sea Level Pressure 30.25 in    
Wind  
Wind Speed 1 mph (East)    
Max Wind Speed 9 mph    
Max Gust Speed -    
Visibility 10 miles    
Events      
Averages and records for this station are not official NWS values.
T = Trace of Precipitation, MM = Missing Value Source: NWS Daily Summary

Daily Weather History Graph

Daily Weather History Graph

Search for Another Location

Airport:

Trip Planner

Search our weather history database for the weather conditions in past years. The results will help you decide how hot, cold, wet, or windy it might be!

Date:

Astronomy

Nov. 03, 2013 Rise Set
Actual Time 6:20 AM CST 5:02 PM CST
Civil Twilight 5:54 AM CST 5:28 PM CST
Nautical Twilight 5:24 AM CST 5:58 PM CST
Astronomical Twilight 4:54 AM CST 6:27 PM CST
Moon 6:23 AM CST (11/3) 5:18 PM CST (11/3)
Length of Visible Light 11h 34m
Length of Day
10h 42m
New Moon, 0% of the Moon is Illuminated
Nov 3
New Moon
Nov 9
First Quarter
Nov 17
Full
Nov 25
Last Quarter
Dec 2
New

Hourly Weather History & Observations

Time (CST) Temp. Windchill Dew Point Humidity Pressure Visibility Wind Dir Wind Speed Gust Speed Precip Events Conditions
12:15 AM 39.2 °F - 37.4 °F 93% 30.22 in 10.0 mi Calm Calm - N/A   Clear
12:35 AM 37.4 °F - 37.4 °F 100% 30.22 in 10.0 mi Calm Calm - N/A   Clear
12:55 AM 37.4 °F - 37.4 °F 100% 30.22 in 10.0 mi Calm Calm - N/A   Clear
1:15 AM 37.4 °F - 35.6 °F 93% 30.22 in 10.0 mi Calm Calm - N/A   Clear
1:35 AM 37.4 °F - 35.6 °F 93% 30.23 in 10.0 mi Calm Calm - N/A   Clear
1:55 AM 37.4 °F - 35.6 °F 93% 30.23 in 10.0 mi Calm Calm - N/A   Clear
1:15 AM 37.4 °F - 35.6 °F 93% 30.23 in 10.0 mi Calm Calm - N/A   Clear
1:35 AM 37.4 °F - 35.6 °F 93% 30.24 in 10.0 mi Calm Calm - N/A   Clear
1:55 AM 35.6 °F - 35.6 °F 100% 30.23 in 10.0 mi Calm Calm - N/A   Clear
2:15 AM 35.6 °F - 35.6 °F 100% 30.23 in 10.0 mi Calm Calm - N/A   Clear
2:35 AM 35.6 °F - 35.6 °F 100% 30.23 in 10.0 mi Calm Calm - N/A   Clear
2:55 AM 35.6 °F - 35.6 °F 100% 30.23 in 10.0 mi Calm Calm - N/A   Clear
3:15 AM 35.6 °F - 35.6 °F 100% 30.23 in 10.0 mi Calm Calm - N/A   Clear
3:35 AM 35.6 °F - 33.8 °F 93% 30.24 in 10.0 mi Calm Calm - N/A   Clear
3:55 AM 33.8 °F - 32.0 °F 93% 30.25 in 10.0 mi Calm Calm - N/A   Clear
4:15 AM 33.8 °F - 32.0 °F 93% 30.25 in 10.0 mi Calm Calm - N/A   Clear
4:35 AM 32.0 °F - 32.0 °F 100% 30.26 in 10.0 mi Calm Calm - N/A   Clear
4:55 AM 32.0 °F - 32.0 °F 100% 30.26 in 10.0 mi Calm Calm - N/A   Clear
5:15 AM 32.0 °F - 32.0 °F 100% 30.27 in 10.0 mi Calm Calm - N/A   Clear
5:35 AM 32.0 °F - 32.0 °F 100% 30.28 in 10.0 mi Calm Calm - N/A   Clear
5:55 AM 32.0 °F - 32.0 °F 100% 30.29 in 10.0 mi Calm Calm - N/A   Clear
6:15 AM 32.0 °F - 32.0 °F 100% 30.30 in 10.0 mi Calm Calm - N/A   Clear
6:35 AM 32.0 °F - 32.0 °F 100% 30.30 in 10.0 mi Calm Calm - N/A   Clear
6:55 AM 32.0 °F - 32.0 °F 100% 30.32 in 9.0 mi Calm Calm - N/A   Clear
7:15 AM 35.6 °F - 33.8 °F 93% 30.32 in 10.0 mi Calm Calm - N/A   Clear
7:35 AM 37.4 °F - 35.6 °F 93% 30.33 in 10.0 mi Calm Calm - N/A   Clear
7:55 AM 39.2 °F - 39.2 °F 100% 30.32 in 10.0 mi Calm Calm - N/A   Clear
8:15 AM 44.6 °F 42.2 °F 41.0 °F 87% 30.32 in 10.0 mi East 4.6 mph - N/A   Clear
8:35 AM 48.2 °F - 39.2 °F 71% 30.32 in 10.0 mi ESE 5.8 mph - N/A   Clear
8:55 AM 50.0 °F - 37.4 °F 62% 30.33 in 10.0 mi East 4.6 mph - N/A   Clear
9:15 AM 50.0 °F - 37.4 °F 62% 30.32 in 10.0 mi East 8.1 mph - N/A   Clear
9:35 AM 51.8 °F - 37.4 °F 58% 30.33 in 10.0 mi East 6.9 mph - N/A   Clear
9:55 AM 53.6 °F - 35.6 °F 51% 30.33 in 10.0 mi East 6.9 mph - N/A   Clear
10:15 AM 53.6 °F - 35.6 °F 51% 30.32 in 10.0 mi ESE 4.6 mph - N/A   Clear
10:35 AM 55.4 °F - 35.6 °F 47% 30.32 in 10.0 mi East 9.2 mph - N/A   Clear
10:55 AM 55.4 °F - 35.6 °F 47% 30.32 in 10.0 mi ESE 3.5 mph - N/A   Clear
11:15 AM 55.4 °F - 35.6 °F 47% 30.31 in 10.0 mi NE 8.1 mph - N/A   Clear
11:35 AM 57.2 °F - 35.6 °F 44% 30.30 in 10.0 mi East 5.8 mph - N/A   Clear
11:55 AM 57.2 °F - 35.6 °F 44% 30.28 in 10.0 mi East 5.8 mph - N/A   Clear
12:15 PM 57.2 °F - 35.6 °F 44% 30.27 in 10.0 mi NE 5.8 mph - N/A   Clear
12:35 PM 57.2 °F - 35.6 °F 44% 30.26 in 10.0 mi ESE 3.5 mph - N/A   Clear
12:55 PM 59.0 °F - 35.6 °F 42% 30.25 in 10.0 mi ENE 5.8 mph - N/A   Clear
1:15 PM 59.0 °F - 35.6 °F 42% 30.24 in 10.0 mi ESE 4.6 mph - N/A   Clear
1:35 PM 59.0 °F - 35.6 °F 42% 30.23 in 10.0 mi Calm Calm - N/A   Clear
1:55 PM 59.0 °F - 35.6 °F 42% 30.23 in 10.0 mi NE 6.9 mph - N/A   Clear
2:15 PM 59.0 °F - 33.8 °F 39% 30.23 in 10.0 mi Calm Calm - N/A   Clear
2:35 PM 59.0 °F - 35.6 °F 42% 30.22 in 10.0 mi East 6.9 mph - N/A   Clear
2:55 PM 59.0 °F - 37.4 °F 45% 30.22 in 10.0 mi ENE 5.8 mph - N/A   Clear
3:15 PM 59.0 °F - 35.6 °F 42% 30.21 in 10.0 mi East 4.6 mph - N/A   Clear
3:35 PM 59.0 °F - 37.4 °F 45% 30.21 in 10.0 mi ESE 5.8 mph - N/A   Clear
3:55 PM 57.2 °F - 35.6 °F 44% 30.20 in 10.0 mi East 5.8 mph - N/A   Clear
4:15 PM 57.2 °F - 35.6 °F 44% 30.19 in 10.0 mi East 5.8 mph - N/A   Clear
4:35 PM 55.4 °F - 37.4 °F 51% 30.18 in 10.0 mi East 3.5 mph - N/A   Clear
4:55 PM 53.6 °F - 39.2 °F 58% 30.18 in 10.0 mi Calm Calm - N/A   Clear
5:15 PM 50.0 °F - 41.0 °F 71% 30.19 in 10.0 mi Calm Calm - N/A   Clear
5:35 PM 48.2 °F - 41.0 °F 76% 30.20 in 10.0 mi Calm Calm - N/A   Clear
5:55 PM 46.4 °F - 41.0 °F 81% 30.21 in 10.0 mi Calm Calm - N/A   Clear
6:15 PM 44.6 °F - 41.0 °F 87% 30.22 in 10.0 mi Calm Calm - N/A   Clear
6:35 PM 44.6 °F - 41.0 °F 87% 30.23 in 10.0 mi Calm Calm - N/A   Clear
6:55 PM 42.8 °F - 39.2 °F 87% 30.23 in 10.0 mi Calm Calm - N/A   Clear
7:15 PM 41.0 °F - 39.2 °F 93% 30.24 in 10.0 mi Calm Calm - N/A   Clear
7:35 PM 41.0 °F - 39.2 °F 93% 30.24 in 10.0 mi Calm Calm - N/A   Clear
7:55 PM 41.0 °F - 39.2 °F 93% 30.23 in 10.0 mi Calm Calm - N/A   Clear
8:15 PM 39.2 °F - 39.2 °F 100% 30.23 in 10.0 mi Calm Calm - N/A   Clear
8:35 PM 39.2 °F - 39.2 °F 100% 30.24 in 10.0 mi Calm Calm - N/A   Clear
8:55 PM 39.2 °F - 37.4 °F 93% 30.24 in 10.0 mi Calm Calm - N/A   Clear
9:15 PM 39.2 °F - 37.4 °F 93% 30.24 in 10.0 mi Calm Calm - N/A   Clear
9:35 PM 39.2 °F - 37.4 °F 93% 30.25 in 10.0 mi Calm Calm - N/A   Clear
9:55 PM 39.2 °F - 37.4 °F 93% 30.25 in 10.0 mi Calm Calm - N/A   Clear
10:15 PM 39.2 °F - 37.4 °F 93% 30.24 in 10.0 mi Calm Calm - N/A   Clear
10:35 PM 39.2 °F - 39.2 °F 100% 30.23 in 10.0 mi Calm Calm - N/A   Clear
10:55 PM 41.0 °F - 39.2 °F 93% 30.24 in 10.0 mi Calm Calm - N/A   Clear